Regional Weather Roundup
Issued by NWS Lake Charles, LA

Home | Current Version | Previous Version | Text Only | Print | Product List | Glossary On
Versions: 1 2 3 4 5 6 7 8 9 10 11 12 13 14 15 16 17 18 19 20 21 22 23 24 25 26 27 28 29 30 31 32 33 34 35 36 37 38 39 40 41 42 43 44 45 46 47 48 49 50
000
ASUS44 KLCH 031110
RWRLCH
RWRLCH
REGIONAL WEATHER ROUNDUP
NATIONAL WEATHER SERVICE LAKE CHARLES LA
600 AM CDT FRI JUL 03 2015

Note: "fair" indicates few or no clouds below 12,000 feet with no
significant weather and/or obstructions to visibility.


ACROSS SOUTHEAST TEXAS

CITY           SKY/WX    TMP DP  RH WIND       PRES   REMARKS
BEAUMONT       PTCLDY    77  76  96 S6        30.00F
BEAUMONT CITY    N/A     76  75  98 CALM      30.01S
ORANGE         SUNNY     74  74 100 CALM      30.02F FOG
JASPER         PTCLDY    75  74  96 CALM      30.03F FOG
$$

ACROSS CENTRAL LOUISIANA

CITY           SKY/WX    TMP DP  RH WIND       PRES   REMARKS
LEESVILLE      MOCLDY    76  74  95 S7        30.00S
FULLERTON        N/A     76  73  91 CALM      29.99S FOG
ALEXANDRIA INT MOCLDY    75  74  96 S3        30.00R
ESLER FIELD    MOCLDY    76  73  91 S3        30.02R FOG
DERIDDER         N/A     76  74  95 CALM      30.04R
OAKDALE        PTSUNNY   72  71  96 CALM      30.03R FOG
OPELOUSAS        N/A     74  74  98 S3        30.03R
$$

ACROSS SOUTHWEST AND SOUTH CENTRAL LOUISIANA

CITY           SKY/WX    TMP DP  RH WIND       PRES   REMARKS
SULPHUR        PTSUNNY   77  76  98 CALM      30.02S
LAKE CHARLES   MOCLDY    76  74  93 CALM      30.01S
CHENNAULT INT  PTCLDY    75  75 100 CALM      30.02S
CAMERON PHI    SUNNY     82  77  83 S8        30.04S
DEQUINCY         N/A     72  72 100 CALM      30.02S
JENNINGS         N/A     76  75  98 CALM      30.02S
LAFAYETTE      PTCLDY    76  74  93 CALM      30.03R
NEW IBERIA     CLEAR     77  73  88 CALM        N/A
ABBEVILLE        N/A     74  74  99 CALM      30.03S
PATTERSON      MOCLDY    77  73  88 CALM      30.04S
SALT POINT       N/A     83  78  85 SW5       30.01S
$$

SELECTED SITES ACROSS THE REGION

CITY           SKY/WX    TMP DP  RH WIND       PRES   REMARKS
HOUSTON BUSH   PTCLDY    75  74  96 CALM      30.00S
HOUSTON HOBBY  PTCLDY    78  75  90 CALM      29.99F
GALVESTON      PTCLDY    82  78  88 S9        30.01S
COLLEGE STAT   MOCLDY    76  74  93 S6        30.00R
CONROE         CLEAR     73  70  90 CALM      30.01R
HUNTSVILLE     CLEAR     76  74  93 S7        30.00F
LUFKIN         PTCLDY    77  73  87 S5        30.00S FOG
SHREVEPORT     CLOUDY    77  73  87 SW9       29.97S
MONROE         MOCLDY    76  74  93 SW8       29.99R
NATCHEZ MS     MOCLDY    75  72  88 CALM      30.03R
BATON ROUGE    PTCLDY    76  74  93 CALM      30.03R
N.O. INTL ARPT MOCLDY    79  74  84 S5        30.04R
SLIDELL        MOCLDY    75  74  96 CALM      30.03S
$$

MARINE REPORTS

STATION/POSITION TIME  TEMP    WIND        PRES    VSBY  WAVE
                       AIR SEA DIR/SP/G                  HT/PER
                 (UTC) (F)     (DEG/KT/KT) (MB)    (MI)  (FT/S)
BUOY 30 S HIGH I 1050   84 83  190/ 12/ 14 1015.4R         3/ 6
SEA RIM ST PARK  1000   80     170/ 11/ 13 1016.7R
PORT ARTHUR      1000      83     CALM     1016.3R
SABINE PASS N    1000   82 84  180/  5/  7 1016.2F
TEXAS POINT      NOT AVBL
CALCASIEU PASS   1000   83 84  220/ 11/ 13   N/A
LK CHARLES BEACH 1000   79 84                N/A
MARSH ISLAND     1000   85     190/  7/ 10   N/A           0
FRESH WATER LOCK 1000   83 85  180/  9/ 12 1016.5R
AMERADA PASS     1000   83 83  190/  2/  6 1016.6R
$$


USA.gov is the U.S. government's official web portal to all federal, state and local government web resources and services.